TimeAKDT,TemperatureF,Dew PointF,Humidity,Sea Level PressureIn,VisibilityMPH,Wind Direction,Wind SpeedMPH,Gust SpeedMPH,PrecipitationIn,Events,Conditions,WindDirDegrees,DateUTC
12:53 AM,52.0,46.9,83,30.11,10.0,NE,3.5,-,N/A,,Overcast,50,2013-09-10 08:53:00
1:53 AM,51.1,46.9,86,30.12,10.0,NNE,3.5,-,N/A,,Overcast,30,2013-09-10 09:53:00
2:53 AM,52.0,46.9,83,30.11,10.0,Calm,Calm,-,N/A,,Overcast,0,2013-09-10 10:53:00
3:53 AM,51.1,46.9,86,30.11,10.0,Calm,Calm,-,N/A,,Overcast,0,2013-09-10 11:53:00
4:53 AM,51.1,46.9,86,30.09,10.0,Calm,Calm,-,N/A,,Overcast,0,2013-09-10 12:53:00
5:53 AM,51.1,46.9,86,30.10,10.0,Calm,Calm,-,N/A,,Overcast,0,2013-09-10 13:53:00
6:53 AM,51.1,46.9,86,30.09,10.0,Calm,Calm,-,N/A,,Overcast,0,2013-09-10 14:53:00
7:53 AM,50.0,46.9,89,30.10,10.0,Calm,Calm,-,N/A,,Overcast,0,2013-09-10 15:53:00
8:53 AM,50.0,46.0,86,30.10,10.0,Calm,Calm,-,N/A,,Overcast,0,2013-09-10 16:53:00
9:53 AM,48.9,46.0,90,30.11,7.0,Calm,Calm,-,N/A,,Overcast,0,2013-09-10 17:53:00
10:53 AM,50.0,46.9,89,30.10,10.0,Calm,Calm,-,N/A,,Overcast,0,2013-09-10 18:53:00
11:53 AM,52.0,46.9,83,30.11,10.0,Calm,Calm,-,N/A,,Partly Cloudy,0,2013-09-10 19:53:00
12:53 PM,53.1,46.0,77,30.10,10.0,Calm,Calm,-,N/A,,Scattered Clouds,0,2013-09-10 20:53:00
1:53 PM,52.0,46.9,83,30.10,10.0,Calm,Calm,-,N/A,,Overcast,0,2013-09-10 21:53:00
2:53 PM,52.0,45.0,77,30.09,10.0,SW,5.8,-,N/A,,Overcast,230,2013-09-10 22:53:00
3:53 PM,52.0,45.0,77,30.07,10.0,WSW,3.5,-,N/A,,Scattered Clouds,240,2013-09-10 23:53:00
4:53 PM,50.0,45.0,83,30.06,10.0,Calm,Calm,-,N/A,,Mostly Cloudy,0,2013-09-11 00:53:00
5:53 PM,52.0,46.0,80,30.06,10.0,Calm,Calm,-,N/A,,Overcast,0,2013-09-11 01:53:00
6:53 PM,53.1,46.0,77,30.04,10.0,Calm,Calm,-,N/A,,Overcast,0,2013-09-11 02:53:00
7:53 PM,51.1,45.0,80,30.06,10.0,Calm,Calm,-,N/A,,Overcast,0,2013-09-11 03:53:00
8:53 PM,53.1,46.9,80,30.07,10.0,Calm,Calm,-,N/A,,Overcast,0,2013-09-11 04:53:00
9:53 PM,52.0,46.9,83,30.07,10.0,Calm,Calm,-,N/A,,Overcast,0,2013-09-11 05:53:00
10:53 PM,52.0,48.0,86,30.07,10.0,NNE,3.5,-,N/A,,Overcast,30,2013-09-11 06:53:00
11:53 PM,50.0,46.9,89,30.07,10.0,Calm,Calm,-,0.00,Rain,Light Rain,0,2013-09-11 07:53:00